Location: *
(50.8956°S, 176.4536°W)
Time: 21:51:26
(UTC+00:00)

Daily predictions for brighter satellites

Satellite Brightness Start Highest point End
(mag) Time Altitude Azimuth Time Altitude Azimuth Time Altitude Azimuth
Cosmos 2263 Rocket 4.2 15:22:53 22° ENE 15:22:53 22° ENE 15:24:55 10° ENE
Cosmos 1980 Rocket 3.7 15:35:06 34° E 15:35:06 34° E 15:39:27 10° SE
CZ-2C R/B 4.5 15:45:16 10° SSE 15:47:23 24° SSE 15:47:23 24° SSE
SL-16 R/B 4.2 15:47:17 10° SSE 15:49:28 23° S 15:49:28 23° S
ISS -0.1 16:01:58 10° E 16:01:58 10° E 16:01:59 10° E
SeaSat 1 3.1 16:10:00 10° NE 16:14:02 52° E 16:14:02 52° E
S3M 4.0 16:17:53 45° S 16:19:59 78° E 16:26:17 10° NNE
Helios 1A 4.4 16:17:57 10° SSE 16:21:07 35° ESE 16:21:07 35° ESE
USA 234 3.1 16:18:47 10° ESE 16:25:27 87° NNE 16:26:20 70° NW
SL-16 R/B 4.4 16:21:27 10° NNE 16:25:56 24° ENE 16:30:26 10° SE
Cosmos 1697 Rocket 3.5 16:30:03 39° S 16:30:03 39° S 16:33:49 10° SSE
Cosmos 2266 Rocket 4.0 16:31:22 10° N 16:37:27 75° E 16:43:35 10° SSE
Cosmos 1417 Rocket 4.4 16:41:05 66° W 16:41:12 67° W 16:47:32 10° N
Cosmos 1844 Rocket 3.7 16:38:48 25° S 16:41:30 41° SE 16:46:47 10° ENE
Blok-L 3.9 16:42:20 67° NNE 16:42:20 67° NNE 16:48:42 10° NE
SMAP 3.5 16:37:58 10° NNE 16:42:35 60° ESE 16:44:17 37° S
Exosat Rocket 3.7 16:42:08 55° S 16:43:12 73° ESE 16:48:51 10° NNE
Cosmos 839 Rocket 4.4 16:42:54 54° W 16:44:05 60° SW 16:50:47 10° SE
Blok-ML 4.2 16:53:40 76° W 16:53:54 81° NW 17:05:02 10° NE
SJ-11-01 4.2 16:50:09 10° NNE 16:54:53 84° ESE 16:56:11 49° S
Cosmos-2242 4.3 16:53:21 10° NNE 16:57:30 42° E 17:01:42 10° SSE
Cosmos 2369 3.6 16:58:24 57° WNW 16:59:23 68° WSW 17:05:08 10° SSE
BREEZE-M DEB (TANK) 2.9 17:00:04 43° NE 17:00:04 43° NE 17:01:56 10° E
DNEPR-1 R/B 3.3 17:02:35 84° SSE 17:02:39 84° SE 17:06:50 10° NE
Cosmos 2263 Rocket 2.8 17:04:37 37° NW 17:04:37 37° NW 17:08:44 10° N
ADEOS 4.4 17:00:07 10° NE 17:05:11 50° ESE 17:10:19 10° S
Cosmos 2278 3.8 17:03:20 10° NNW 17:09:02 78° ENE 17:14:49 10° SSE
ARGOS 3.3 17:06:33 10° N 17:11:53 52° W 17:13:08 44° WSW
Cosmos 883 Rocket 4.4 17:06:32 10° SSW 17:12:40 64° W 17:18:45 10° N
Cosmos 1544 3.9 17:13:48 27° SSE 17:15:21 47° ESE 17:18:40 10° NNE
Cosmos 1992 Rocket 4.1 17:13:05 23° SSW 17:16:26 74° ESE 17:21:41 10° NNE
Cosmos 1980 Rocket 2.4 17:16:55 43° W 17:18:08 50° SW 17:23:44 10° SSE
CBERS 1 LM4 rocket 4.3 17:14:30 10° NNE 17:19:23 87° WNW 17:23:03 18° SSW
Cosmos 1666 3.5 17:16:51 16° S 17:19:37 49° ESE 17:23:13 10° NNE
CZ-4 R/B 4.3 17:17:56 10° E 17:19:59 14° ESE 17:22:03 10° SSE
Cosmos 2278 Rocket 4.3 17:16:33 10° S 17:20:26 18° SSE 17:24:17 10° ESE
SL-24 R/B 4.4 17:16:32 10° N 17:21:12 77° WNW 17:26:47 10° SSW
SL-08 R/B 4.4 17:20:20 10° SSE 17:24:51 45° E 17:29:18 10° N
AQUARIUS 4.1 17:24:22 10° N 17:28:52 66° WNW 17:31:36 24° SSW
Cosmos 2315 Rocket 4.0 17:23:24 10° SSW 17:29:32 55° W 17:35:35 10° NNW
CZ-2C R/B 3.9 17:26:06 10° S 17:28:52 23° SSW 17:28:52 23° SSW
Cosmos 967 Rocket 4.5 17:26:53 19° NW 17:31:37 67° SW 17:38:05 10° SE
ISS -3.5 17:34:51 51° NW 17:35:16 56° NNW 17:38:37 10° NE
SL-16 R/B 4.2 17:32:15 10° S 17:34:33 15° SSW 17:34:33 15° SSW
BREEZE-M DEB (TANK) 2.6 17:35:26 31° N 17:35:59 36° NNE 17:39:02 10° E
CZ-4B R/B 4.0 17:33:23 10° NNW 17:38:09 37° W 17:39:40 30° WSW
Timation 2 Rocket 4.1 17:35:22 27° SW 17:38:31 51° WNW 17:44:30 10° N
YAOGAN 1 4.2 17:35:45 10° NE 17:39:40 33° ESE 17:43:38 10° S
Cosmos 614 Rocket 4.5 17:34:57 10° N 17:40:01 61° ENE 17:45:07 10° SSE
SL-08 RB Rocket 4.3 17:37:59 10° NNW 17:42:04 34° W 17:42:34 33° W
Cosmos 1242 Rocket 2.9 17:43:59 39° WNW 17:43:59 39° WNW 17:46:57 10° NNW
Cosmos 2237 4.4 17:40:06 10° NNW 17:45:49 77° ENE 17:51:38 10° SSE
Cosmos 1655 Rocket 4.2 17:40:09 10° NW 17:46:10 47° WSW 17:52:16 10° S
Cosmos 1602 3.5 17:44:57 18° SSW 17:47:42 70° W 17:51:27 10° N
Cosmos 1782 4.2 17:48:05 10° NNE 17:51:49 41° E 17:55:37 10° SSE
SeaSat 1 3.5 17:48:32 10° NNW 17:52:40 26° WNW 17:53:47 24° W
Cosmos 1461 2.7 17:51:09 31° SW 17:52:52 66° NW 17:56:49 10° NNE
Cosmos 1766 Rocket 4.0 17:48:37 10° S 17:53:10 68° ESE 17:57:37 10° NNE
Cosmos 1818 3.7 17:49:20 16° WNW 17:53:32 55° SW 17:58:53 10° SE
Meteor PRIRODA 3.6 17:50:27 10° N 17:54:03 62° WNW 17:56:47 17° SSW
Cosmos 44 3.9 17:54:39 26° W 17:55:49 31° WNW 17:59:36 10° N
NOAA 6 4.0 17:51:22 10° N 17:56:32 67° WNW 18:01:44 10° SSW
Helios 1A 3.9 17:53:36 10° S 17:57:09 26° WSW 17:57:32 26° WSW
Meteor 1-20 Rocket 4.2 17:55:26 10° SSW 18:01:07 70° W 18:06:49 10° N
Cosmos 1500 3.7 18:01:15 22° SW 18:03:06 36° W 18:06:32 10° NNW
Meteor 1-25 Rocket 4.2 18:01:28 10° SSW 18:07:11 72° W 18:12:46 10° N
USA 234 3.5 18:01:49 10° ESE 18:08:16 57° S 18:13:41 15° W
SL-16 R/B 2.2 18:03:50 10° NW 18:09:32 69° WSW 18:15:17 10° SSE
Resurs 01 Rocket 4.4 18:08:53 10° E 18:10:46 13° SE 18:12:40 10° SSE
CZ-4B R/B 3.1 18:08:27 10° N 18:12:41 61° W 18:17:09 10° SSW
Cosmos 2322 Rocket 2.2 18:07:14 10° NNW 18:12:53 87° WSW 18:18:38 10° SSE
Cosmos 1844 3.8 18:07:42 12° SW 18:13:03 61° WNW 18:18:45 10° NNE
Cosmos 1697 Rocket 4.2 18:11:49 16° SW 18:13:24 18° SSW 18:17:12 10° S
Okean O Rocket 3.3 18:10:46 10° NE 18:14:41 32° ESE 18:18:39 10° S
DELTA 2 DEB (DPAF) 4.1 18:14:08 10° SSE 18:18:36 88° WSW 18:23:00 10° NNW
Cosmos 2360 Rocket 2.4 18:14:22 10° NNW 18:20:03 79° ENE 18:25:49 10° SSE
SMAP 4.4 18:16:50 10° NW 18:20:19 20° W 18:22:45 14° SW
Cosmos 2221 2.6 18:19:25 10° N 18:23:47 84° E 18:28:12 10° SSE
USA 186 4.3 18:21:41 10° ENE 18:24:13 21° ESE 18:26:48 10° SSE
Cosmos 1844 Rocket 3.1 18:20:29 12° SW 18:25:26 43° WNW 18:30:40 10° N
PAYLOAD B 4.4 18:20:59 10° NNE 18:26:35 83° ESE 18:32:18 10° SSW
COSMO-SKYMED 1 2.6 18:27:10 10° S 18:31:33 58° WSW 18:35:52 10° NNW
Cosmos 2333 Rocket 2.6 18:26:24 10° NNW 18:32:02 71° ENE 18:37:46 10° SSE
Cosmos 1269 Rocket 4.2 18:29:18 10° NW 18:34:30 52° WSW 18:39:47 10° SSE
SL-4 R/B 3.4 18:30:30 10° NW 18:34:49 45° NNE 18:39:19 10° ESE
Cosmos-2242 4.1 18:31:28 10° WNW 18:35:07 25° WSW 18:38:49 10° SSW
SJ-6B 4.1 18:31:45 10° NE 18:35:16 38° ESE 18:38:48 10° S
Cosmos 1933 3.3 18:32:12 10° NNW 18:36:17 67° WSW 18:40:26 10° S
USA 81 4.2 18:37:47 10° SSW 18:43:02 55° W 18:48:12 10° NNW
Cosmos 2219 Rocket 2.9 18:38:38 10° NNW 18:44:09 61° ENE 18:49:44 10° SE
ADEOS 4.5 18:40:23 10° NNW 18:44:55 29° W 18:49:31 10° SW
Cosmos 1812 3.2 18:42:28 10° NW 18:46:00 37° WSW 18:49:38 10° S
CZ-4B R/B 3.4 18:46:03 10° NNE 18:51:45 88° WNW 18:57:27 10° SSW
Cosmos 1743 Rocket 4.3 18:47:28 10° S 18:52:00 59° ESE 18:56:28 10° NNE
CZ-4 R/B 1.4 18:50:08 10° NNE 18:54:10 86° WNW 18:58:20 10° SSW
Cosmos 1666 4.3 18:52:01 10° SW 18:54:16 15° W 18:56:30 10° WNW
Meteor 2-20 4.5 18:48:12 10° SSW 18:54:19 68° W 19:00:24 10° N
Cosmos 1500 Rocket 3.8 18:52:52 10° S 18:57:19 78° ESE 19:01:45 10° NNE
NOSS 3-3 (A) 4.0 18:51:35 10° SW 18:58:12 70° NW 19:03:48 10° NNE
NOSS 3-3 (C) 4.0 18:51:40 10° SW 18:58:17 71° NW 19:03:54 10° NNE
Cosmos 1745 Rocket 4.1 18:53:32 10° NNW 18:59:37 59° WSW 19:05:47 10° S
PSLV R/B 3.9 18:57:00 10° N 19:00:49 56° W 19:04:36 10° SSW
JB-3 4.4 18:56:55 10° SSE 19:01:09 82° WSW 19:05:18 10° NNW
Cosmos 1709 Rocket 4.0 18:56:37 10° NNW 19:02:46 80° W 19:09:06 10° S
